Weather History for Brunswick, GA

Change the Weather History Date:

Saturday, March 16, 2013

  Actual Average Record
Temperature  
Mean Temperature 68 °F -  
Max Temperature 82 °F 71 °F 87 °F (1977)
Min Temperature 53 °F 51 °F 28 °F (1999)
Cooling Degree Days 2    
Growing Degree Days 18 (Base 50)    
Moisture  
Dew Point 46 °F    
Average Humidity 49    
Maximum Humidity 82    
Minimum Humidity 26    
Precipitation  
Precipitation 0.00 in - - ()
Sea Level Pressure  
Sea Level Pressure 30.07 in    
Wind  
Wind Speed 11 mph (WSW)    
Max Wind Speed 21 mph    
Max Gust Speed 28 mph    
Visibility 10 miles    
Events      
Averages and records for this station are not official NWS values.
T = Trace of Precipitation, MM = Missing Value Source: NWS Daily Summary

Daily Weather History Graph

Daily Weather History Graph

Search for Another Location

Airport:

Trip Planner

Search our weather history database for the weather conditions in past years. The results will help you decide how hot, cold, wet, or windy it might be!

Date:

Astronomy

Mar. 16, 2013 Rise Set
Actual Time 7:34 AM EDT 7:34 PM EDT
Civil Twilight 7:10 AM EDT 7:59 PM EDT
Nautical Twilight 6:42 AM EDT 8:27 PM EDT
Astronomical Twilight 6:13 AM EDT 8:55 PM EDT
Moon 10:22 AM EDT (3/16) No Moon Set
Length of Visible Light 12h 48m
Length of Day
12h 00m
Waxing Crescent, 23% of the Moon is Illuminated
Mar 16
Waxing Crescent
Mar 19
First Quarter
Mar 27
Full
Apr 3
Last Quarter
Apr 10
New

Hourly Weather History & Observations

Time (EDT) Temp. Dew Point Humidity Pressure Visibility Wind Dir Wind Speed Gust Speed Precip Events Conditions
12:15 AM 59.0 °F 44.6 °F 59% 30.14 in 10.0 mi WSW 9.2 mph - N/A   Clear
12:35 AM 59.0 °F 44.6 °F 59% 30.13 in 10.0 mi SW 11.5 mph 17.3 mph N/A   Clear
12:55 AM 59.0 °F 42.8 °F 55% 30.13 in 10.0 mi SW 10.4 mph - N/A   Clear
1:15 AM 60.8 °F 42.8 °F 52% 30.12 in 10.0 mi WSW 11.5 mph - N/A   Clear
1:35 AM 59.0 °F 42.8 °F 55% 30.12 in 10.0 mi WSW 10.4 mph - N/A   Clear
1:55 AM 59.0 °F 42.8 °F 55% 30.12 in 10.0 mi WSW 11.5 mph - N/A   Clear
2:15 AM 59.0 °F 42.8 °F 55% 30.11 in 10.0 mi WSW 12.7 mph 16.1 mph N/A   Clear
2:55 AM 59.0 °F 44.6 °F 59% 30.11 in 10.0 mi WSW 12.7 mph - N/A   Clear
3:15 AM 59.0 °F 42.8 °F 55% 30.11 in 10.0 mi WSW 10.4 mph - N/A   Clear
3:35 AM 57.2 °F 42.8 °F 59% 30.10 in 10.0 mi WSW 11.5 mph - N/A   Clear
3:55 AM 57.2 °F 44.6 °F 63% 30.10 in 10.0 mi WSW 10.4 mph - N/A   Clear
4:15 AM 55.4 °F 44.6 °F 67% 30.09 in 10.0 mi WSW 11.5 mph - N/A   Clear
4:35 AM 55.4 °F 44.6 °F 67% 30.09 in 10.0 mi WSW 10.4 mph - N/A   Clear
4:55 AM 55.4 °F 44.6 °F 67% 30.09 in 10.0 mi WSW 10.4 mph - N/A   Clear
5:15 AM 55.4 °F 44.6 °F 67% 30.09 in 10.0 mi WSW 9.2 mph - N/A   Clear
5:35 AM 55.4 °F 44.6 °F 67% 30.09 in 10.0 mi WSW 9.2 mph - N/A   Clear
5:55 AM 53.6 °F 46.4 °F 77% 30.10 in 10.0 mi WSW 9.2 mph - N/A   Clear
6:15 AM 53.6 °F 46.4 °F 77% 30.09 in 10.0 mi WSW 9.2 mph - N/A   Clear
6:35 AM 53.6 °F 46.4 °F 77% 30.10 in 10.0 mi WSW 9.2 mph - N/A   Clear
6:55 AM 53.6 °F 46.4 °F 77% 30.11 in 10.0 mi WSW 8.1 mph - N/A   Clear
7:15 AM 53.6 °F 46.4 °F 77% 30.11 in 10.0 mi WSW 9.2 mph - N/A   Clear
7:35 AM 53.6 °F 46.4 °F 77% 30.11 in 10.0 mi West 5.8 mph - N/A   Clear
7:55 AM 53.6 °F 46.4 °F 77% 30.11 in 10.0 mi WSW 6.9 mph - N/A   Clear
8:15 AM 53.6 °F 48.2 °F 82% 30.12 in 10.0 mi West 8.1 mph - N/A   Clear
8:35 AM 55.4 °F 48.2 °F 77% 30.12 in 10.0 mi WSW 8.1 mph - N/A   Clear
8:55 AM 59.0 °F 50.0 °F 72% 30.13 in 10.0 mi WSW 9.2 mph - N/A   Clear
9:15 AM 60.8 °F 50.0 °F 68% 30.13 in 10.0 mi West 10.4 mph - N/A   Clear
9:35 AM 60.8 °F 50.0 °F 68% 30.13 in 10.0 mi West 12.7 mph 21.9 mph N/A   Clear
9:55 AM 62.6 °F 50.0 °F 63% 30.13 in 10.0 mi West 11.5 mph - N/A   Clear
10:15 AM 64.4 °F 50.0 °F 59% 30.12 in 10.0 mi West 12.7 mph 19.6 mph N/A   Clear
10:35 AM 68.0 °F 50.0 °F 52% 30.12 in 10.0 mi West 9.2 mph 17.3 mph N/A   Clear
10:55 AM 69.8 °F 48.2 °F 46% 30.12 in 10.0 mi WSW 12.7 mph 23.0 mph N/A   Clear
11:15 AM 71.6 °F 46.4 °F 41% 30.12 in 10.0 mi West 15.0 mph - N/A   Clear
11:35 AM 73.4 °F 46.4 °F 38% 30.11 in 10.0 mi West 12.7 mph - N/A   Clear
11:55 AM 75.2 °F 44.6 °F 34% 30.11 in 10.0 mi West 15.0 mph 19.6 mph N/A   Clear
12:15 PM 77.0 °F 44.6 °F 32% 30.10 in 10.0 mi West 16.1 mph 21.9 mph N/A   Clear
12:35 PM 77.0 °F 44.6 °F 32% 30.09 in 10.0 mi WSW 13.8 mph 19.6 mph N/A   Clear
12:55 PM 77.0 °F 44.6 °F 32% 30.08 in 10.0 mi West 13.8 mph 20.7 mph N/A   Clear
1:15 PM 78.8 °F 44.6 °F 30% 30.08 in 10.0 mi WSW 15.0 mph - N/A   Clear
1:35 PM 78.8 °F 42.8 °F 28% 30.07 in 10.0 mi WSW 15.0 mph 19.6 mph N/A   Clear
1:55 PM 80.6 °F 44.6 °F 28% 30.06 in 10.0 mi West 16.1 mph 23.0 mph N/A   Clear
2:15 PM 80.6 °F 44.6 °F 28% 30.05 in 10.0 mi WSW 18.4 mph 27.6 mph N/A   Clear
2:35 PM 80.6 °F 44.6 °F 28% 30.04 in 10.0 mi West 9.2 mph - N/A   Clear
2:55 PM 80.6 °F 44.6 °F 28% 30.03 in 10.0 mi WSW 17.3 mph 21.9 mph N/A   Clear
3:15 PM 80.6 °F 44.6 °F 28% 30.02 in 10.0 mi WSW 19.6 mph 25.3 mph N/A   Clear
3:35 PM 82.4 °F 46.4 °F 28% 30.01 in 10.0 mi WSW 17.3 mph 23.0 mph N/A   Clear
3:55 PM 82.4 °F 44.6 °F 26% 30.00 in 10.0 mi WSW 17.3 mph 25.3 mph N/A   Clear
4:15 PM 82.4 °F 46.4 °F 28% 29.99 in 10.0 mi SW 17.3 mph 21.9 mph N/A   Clear
4:35 PM 82.4 °F 44.6 °F 26% 29.99 in 10.0 mi WSW 20.7 mph 27.6 mph N/A   Clear
4:55 PM 82.4 °F 44.6 °F 26% 29.98 in 10.0 mi WSW 19.6 mph 25.3 mph N/A   Clear
5:15 PM 82.4 °F 44.6 °F 26% 29.98 in 10.0 mi SW 16.1 mph 21.9 mph N/A   Clear
5:35 PM 80.6 °F 44.6 °F 28% 29.98 in 10.0 mi WSW 15.0 mph 23.0 mph N/A   Clear
5:55 PM 80.6 °F 44.6 °F 28% 29.98 in 10.0 mi WSW 18.4 mph 26.5 mph N/A   Clear
6:15 PM 80.6 °F 46.4 °F 30% 29.98 in 10.0 mi WSW 12.7 mph - N/A   Clear
6:35 PM 80.6 °F 46.4 °F 30% 29.98 in 10.0 mi WSW 12.7 mph 19.6 mph N/A   Clear
6:55 PM 78.8 °F 46.4 °F 32% 29.98 in 10.0 mi WSW 12.7 mph - N/A   Clear
7:15 PM 78.8 °F 46.4 °F 32% 29.98 in 10.0 mi WSW 9.2 mph - N/A   Clear
7:35 PM 75.2 °F 46.4 °F 36% 29.99 in 10.0 mi WSW 6.9 mph - N/A   Clear
7:55 PM 73.4 °F 48.2 °F 41% 29.99 in 10.0 mi SW 4.6 mph - N/A   Clear
8:15 PM 73.4 °F 48.2 °F 41% 30.00 in 10.0 mi SW 8.1 mph - N/A   Clear
8:35 PM 71.6 °F 48.2 °F 43% 30.01 in 10.0 mi SSW 6.9 mph - N/A   Clear
8:55 PM 71.6 °F 48.2 °F 43% 30.02 in 10.0 mi SW 9.2 mph - N/A   Clear
9:15 PM 71.6 °F 46.4 °F 41% 30.03 in 10.0 mi SW 9.2 mph - N/A   Clear
9:35 PM 71.6 °F 46.4 °F 41% 30.03 in 10.0 mi SW 10.4 mph - N/A   Clear
9:55 PM 71.6 °F 46.4 °F 41% 30.03 in 10.0 mi SW 8.1 mph - N/A   Clear
10:15 PM 69.8 °F 46.4 °F 43% 30.04 in 10.0 mi SW 9.2 mph - N/A   Clear
10:35 PM 69.8 °F 46.4 °F 43% 30.04 in 10.0 mi SW 11.5 mph 17.3 mph N/A   Clear
10:55 PM 69.8 °F 48.2 °F 46% 30.05 in 10.0 mi SW 10.4 mph - N/A   Clear
11:15 PM 69.8 °F 50.0 °F 49% 30.05 in 10.0 mi SW 11.5 mph - N/A   Clear
11:35 PM 68.0 °F 50.0 °F 52% 30.06 in 10.0 mi WSW 11.5 mph - N/A   Clear
11:55 PM 68.0 °F 51.8 °F 56% 30.06 in 10.0 mi SW 11.5 mph 19.6 mph N/A   Clear